Flag for U.S.A. Weather past 2 weeks in Birmingham, Alabama, U.S.A.

Now
31 °F

Sunny.


Feels Like: 26 °F
Forecast: 35 / 56 °F
Wind: 5 mph from Southeast

Location: Birmingham International Airport

Current Time: Jan 25, 2015 at 7:19:35 AM

Latest Report: Jan 25, 2015 at 6:53 AM


Visibility: 10 mi

Pressure: 29.94 "Hg

Humidity: 92%

Dew point: 29 °F

Location of BirminghamLocation

Historic Weather in Birmingham — Graph

°F

Birmingham temperature yesterday

Maximum temperature yesterday: 48 °F (at 2:53 PM)
Minimum temperature yesterday: 33 °F (at 10:53 PM)
Average temperature yesterday: 39 °F

Past Weeks' High & Low Weather Summary

 TemperatureHumidityPressure
High67 °F (Jan 19, 1:53 PM)100% (Jan 12, 6:53 PM)30.58 "Hg (Jan 12, 6:53 PM)
Low18 °F (Jan 10, 5:53 AM)15% (Jan 10, 2:53 PM)29.83 "Hg (Jan 23, 4:53 PM)
Average43 °F70%30.19 "Hg
* Reported Jan 10 5:53 AM — Jan 25 5:53 AM, Birmingham, Weather by CustomWeather, © 2014

Note: Actual official high and low records may vary slightly from our data, if they occured in-between our weather recording intervals... More about our weather records

Advertising

Birmingham weather history for previous 24 hours

 ConditionsComfort  
Time TempWeatherWind HumidityBarometerVisibility
5:53 AM
Jan 25
30 °FClear.3 mph92%29.96 "Hg10 mi
4:53 AM30 °FClear.No wind92%29.97 "Hg10 mi
3:53 AM30 °FClear.No wind92%29.98 "Hg9 mi
2:53 AM31 °FClear.No wind89%29.99 "Hg10 mi
1:53 AM32 °FClear.No wind88%29.99 "Hg10 mi
12:53 AM33 °FClear.No wind88%30.00 "Hg10 mi
11:53 PM
Jan 24
33 °FClear.No wind88%30.01 "Hg10 mi
10:53 PM33 °FClear.No wind88%30.02 "Hg10 mi
9:53 PM34 °FClear.No wind88%30.03 "Hg10 mi
8:53 PM36 °FClear.No wind82%30.02 "Hg10 mi
7:53 PM37 °FClear.No wind76%30.02 "Hg10 mi
6:53 PM43 °FClear.No wind58%30.01 "Hg10 mi
5:53 PM43 °FPassing clouds.5 mph58%30.01 "Hg10 mi
4:53 PM46 °FPassing clouds.8 mph51%30.01 "Hg10 mi
3:53 PM48 °FSunny.9 mph44%29.99 "Hg10 mi
2:53 PM48 °FSunny.12 mph46%30.00 "Hg10 mi
1:53 PM47 °FSunny.13 mph48%30.01 "Hg10 mi
12:53 PM45 °FSunny.8 mph60%30.01 "Hg10 mi
11:53 AM42 °FPassing clouds.9 mph65%30.05 "Hg10 mi
10:53 AM39 °FScattered clouds.9 mph76%30.06 "Hg10 mi
10:04 AM37 °FPartly sunny.8 mph79%30.07 "Hg8 mi
9:53 AM37 °FPartly sunny.8 mph79%30.08 "Hg9 mi
8:53 AM35 °FPartly sunny.13 mph82%30.05 "Hg8 mi
7:53 AM34 °FMostly cloudy.9 mph85%30.04 "Hg8 mi
Weather by CustomWeather, © 2014

See weather overviewHow to use our weather pages